CAPE
1 1 11 12 9 25 9 48 58 80 62 77 66 50 75 64 51 38 51 41 25 24
2 10 10 5 23 32 43 59 63 39 50 41 37 26 44 40 29 41 35 21 22 6
0 0 0 5 11 35 56 46 44 34 33 44 34 21 16 34 32 32 32 29 24 17
0 0 0 0 0 0 4 3 7 19 27 21 9 13 7 8 15 27 38 41 25 25
0 0 0 0 0 0 0 0 0 0 0 0 0 0 1 5 5 7 24 30 12 0
0 0 0 0 0 0 0 0 0 0 0 0 0 0 0 0 0 0 0 0 0 3
0 0 0 0 0 0 0 0 0 0 0 0 0 0 0 0 0 0 0 0 0 0
0 0 0 0 0 0 0 0 0 0 0 0 0 0 0 0 0 0 0 0 0 0
0 0 0 0 0 0 0 0 0 0 0 0 0 0 0 0 0 0 0 0 0 0
0 0 0 0 0 0 0 0 0 0 0 0 0 0 0 0 0 0 0 0 0 0
0 0 0 0 0 0 0 0 0 0 0 0 0 0 0 0 0 0 0 0 0 0
0 0 0 0 0 0 0 0 0 0 0 0 0 0 0 0 1 0 0 0 0 0
0 0 0 0 0 0 0 0 0 0 0 0 0 0 0 3 3 2 0 0 0 0
0 0 0 0 0 0 0 0 0 0 0 0 0 0 0 1 5 2 2 1 1 0
CIN
0 -30 -6 -19 -23 -16 -31 -32 -35 -38 -51 -43 -50 -94 -40 -23 -41 -66 -65 -71 -114 -109
0 -11 -10 0 -4 -3 -4 -7 -23 -33 -32 -41 -57 -64 -47 -44 -20 -43 -71 -63 -113 -61
0 0 -11 -22 -27 -9 0 0 -6 -10 -12 -15 -14 -13 -24 -34 -23 -28 -90 -96 -34 -49
0 0 0 0 0 -6 -19 -15 -1 -4 -2 -4 -4 -15 -24 -23 -15 -26 -26 -9 -24 -39
0 0 0 0 0 0 0 0 0 0 0 0 0 -3 -16 -20 -29 -30 -13 -15 -32 -4
0 0 0 0 0 0 0 0 0 0 0 0 0 0 0 0 0 -7 -9 -12 -11 -15
0 0 0 0 0 0 0 0 0 0 0 0 0 0 0 0 0 0 0 0 0 0
0 0 0 0 0 0 0 0 0 0 0 0 0 0 0 0 0 0 0 0 0 0
0 0 0 0 0 0 0 0 0 0 0 0 0 0 0 0 0 0 0 0 0 0
0 0 0 0 0 0 0 0 0 0 0 0 0 0 0 0 0 0 0 0 0 0
0 0 0 0 0 0 0 0 0 0 0 0 0 0 0 0 0 0 0 0 0 0
0 0 0 0 0 0 0 0 0 0 0 0 0 0 0 0 0 0 0 0 0 0
0 0 0 0 0 0 0 0 0 0 0 0 0 0 0 0 0 0 0 0 0 0
0 0 0 0 0 0 0 0 0 0 0 0 0 0 0 -1 -1 0 0 0 0 0
Wind_Speed
14 18 25 24 19 21 20 22 23 23 22 22 25 29 30 21 18 23 28 34 34 32
10 14 10 12 7 15 17 21 26 31 33 36 37 37 37 32 31 29 31 31 35 31
5 3 9 11 11 17 20 22 25 26 29 30 34 34 34 39 39 38 37 35 32 31
4 6 8 10 12 15 17 18 21 24 30 29 31 33 32 31 33 36 20 28 25 26
6 8 9 9 11 13 15 18 19 22 24 23 26 23 25 23 23 22 24 30 31 33
9 9 9 11 13 15 17 19 20 20 22 24 27 29 31 33 35 35 35 34 33 33
11 12 14 16 17 18 20 21 23 25 27 28 30 30 32 33 34 35 34 34 33 34
17 18 19 20 21 22 24 25 26 28 29 30 31 31 32 33 33 34 35 34 33 32
21 22 23 24 25 26 27 28 29 30 31 33 33 34 35 35 35 35 34 35 35 34
25 26 28 29 29 31 31 32 33 33 34 35 35 36 37 37 36 37 37 37 36 36
29 30 31 31 32 33 33 35 36 37 37 38 38 39 39 40 39 40 39 39 39 38
32 34 34 35 35 35 37 39 40 39 40 41 41 40 41 42 42 42 42 41 40 39
33 33 35 35 36 37 37 39 40 41 41 42 43 42 42 41 41 44 43 42 42 41
33 34 36 38 38 40 41 41 41 44 43 42 42 42 43 43 43 44 46 45 44 41
Wind_Direction
262 249 247 246 254 256 253 255 253 256 257 259 261 260 265 273 273 277 277 274 283 288
255 248 264 245 269 263 263 260 256 253 255 256 258 262 267 274 276 277 279 283 285 283
354 244 276 275 288 265 256 251 254 262 259 269 268 271 275 274 275 277 281 283 284 282
335 303 302 294 283 282 279 278 280 273 265 272 272 268 277 280 277 273 276 283 284 283
328 348 342 322 295 282 282 285 287 282 277 286 283 295 288 290 288 287 285 284 286 287
348 341 319 304 312 316 298 301 302 311 301 299 293 290 287 285 284 285 286 288 288 288
340 325 327 335 330 327 322 315 311 304 300 300 296 296 295 292 291 291 291 291 291 290
338 330 327 324 323 320 319 316 313 310 309 306 304 303 302 301 299 297 296 294 292 291
332 332 329 328 326 324 321 319 317 314 311 309 308 306 305 303 300 299 297 296 294 293
323 323 323 323 323 321 321 321 319 318 315 312 311 310 308 305 303 300 298 296 294 293
327 326 328 330 328 325 323 321 319 317 316 313 311 310 309 306 303 300 298 296 294 292
330 329 328 326 325 325 323 320 318 317 316 314 312 312 310 308 304 300 297 295 293 291
333 333 331 330 328 327 325 321 320 318 318 315 312 311 310 308 305 301 299 295 292 291
336 334 332 329 328 326 324 322 320 318 317 315 313 311 309 308 304 302 300 298 296 292